• MPC Preparation (Info)

  • MPEC 2019-J13 : 2019 JE

    The following Minor Planet Electronic Circular may be linked-to from your own Web pages, but must not otherwise be redistributed electronically.

    A form allowing access to any MPEC is at the bottom of this page.


    Read MPEC 2019-J12 Read MPEC 2019-J14


    M.P.E.C. 2019-J13                                Issued 2019 May 3, 04:23 UT
    
         The Minor Planet Electronic Circulars contain information on unusual
             minor planets and routine data on comets.  They are published
        on behalf of Division F of the International Astronomical Union by the
              Minor Planet Center, Smithsonian Astrophysical Observatory,
                              Cambridge, MA 02138, U.S.A.
    
                 Prepared using the Tamkin Foundation Computer Network
    
                                  MPC@CFA.HARVARD.EDU
                URL https://www.minorplanetcenter.net/    ISSN 1523-6714
    
                                        2019 JE
    
    Observations:
         K19J00E* C2019 05 01.15872 09 58 47.48 +00 59 24.0          19.3 GVEJ013G96
         K19J00E  C2019 05 01.16441 09 58 51.56 +00 59 38.1          20.4 GVEJ013G96
         K19J00E  C2019 05 01.17009 09 58 55.66 +00 59 52.2          19.8 GVEJ013G96
         K19J00E  C2019 05 01.17578 09 58 59.75 +01 00 06.1          19.5 GVEJ013G96
         K19J00E  C2019 05 01.19833009 59 15.21 +01 00 52.2          20.5 GVEJ013H01
         K19J00E  C2019 05 01.20549509 59 20.61 +01 01 10.1          20.5 GVEJ013H01
         K19J00E  C2019 05 01.21265709 59 26.01 +01 01 27.8          19.2 GVEJ013H01
         K19J00E  C2019 05 01.21980709 59 31.49 +01 01 45.8          19.3 GVEJ013H01
         K19J00E  C2019 05 01.25230 09 59 57.58 +01 03 17.8          19.4 GVEJ013I52
         K19J00E  C2019 05 01.25272 09 59 57.87 +01 03 18.9          20.5 GVEJ013I52
         K19J00E  C2019 05 01.25313 09 59 58.24 +01 03 19.8          19.3 GVEJ013I52
         K19J00E  C2019 05 01.25355 09 59 58.54 +01 03 20.9                VEJ013I52
         K19J00E  C2019 05 01.83724 10 10 02.93 +01 29 25.9          19.3 VVEJ013033
         K19J00E  C2019 05 01.83829 10 10 03.97 +01 29 29.2          19.2 VVEJ013033
         K19J00E KC2019 05 01.83920 10 10 05.27 +01 29 38.7          19.1 GVEJ013K87
         K19J00E  C2019 05 01.83933 10 10 05.04 +01 29 32.6          19.6 VVEJ013033
         K19J00E  C2019 05 01.84037 10 10 06.11 +01 29 35.9          18.8 VVEJ013033
         K19J00E KC2019 05 01.84041 10 10 06.50 +01 29 42.6          19.0 GVEJ013K87
         K19J00E KC2019 05 01.84162 10 10 07.73 +01 29 46.5          19.3 GVEJ013K87
         K19J00E KC2019 05 01.84178 10 10 06.81 +01 30 22.2          19.4  VEJ013104
         K19J00E  C2019 05 01.84184 10 10 07.63 +01 29 40.6          19.4 VVEJ013033
         K19J00E  C2019 05 01.84288 10 10 08.70 +01 29 43.8          19.7 VVEJ013033
         K19J00E KC2019 05 01.84773 10 10 12.82 +01 30 41.6          19.1  VEJ013104
         K19J00E KC2019 05 01.84888010 10 13.11 +01 30 37.4          19.7 GVEJ013L01
         K19J00E KC2019 05 01.85070 10 10 15.82 +01 30 51.2          19.4  VEJ013104
         K19J00E KC2019 05 01.85076010 10 15.00 +01 30 43.5          19.8 GVEJ013L01
         K19J00E KC2019 05 01.85209810 10 16.35 +01 30 47.3          19.8 GVEJ013L01
         K19J00E KC2019 05 01.85251 10 10 18.76 +01 30 45.3                VEJ013204
         K19J00E KC2019 05 01.86576 10 10 32.34 +01 31 28.5          19.6 GVEJ013204
         K19J00E KC2019 05 01.87864 10 10 45.66 +01 32 09.9                VEJ013204
         K19J00E  C2019 05 01.88670 10 10 54.46 +01 32 05.6          20.3 VVEJ013033
         K19J00E  C2019 05 01.88768 10 10 55.54 +01 32 08.6          19.3 VVEJ013033
         K19J00E  C2019 05 01.88866 10 10 56.56 +01 32 11.8          19.9 VVEJ013033
         K19J00E  C2019 05 01.88965 10 10 57.58 +01 32 15.1          19.7 VVEJ013033
         K19J00E  C2019 05 01.89063 10 10 58.66 +01 32 18.1          19.8 VVEJ013033
         K19J00E  C2019 05 01.89209 10 11 00.23 +01 32 23.2          20.1 VVEJ013033
         K19J00E KC2019 05 01.89923 10 11 07.17 +01 33 19.4          19.3 GVEJ013203
         K19J00E KC2019 05 01.91133 10 11 20.14 +01 33 59.2          19.3 GVEJ013203
         K19J00E KC2019 05 01.92382 10 11 33.62 +01 34 40.2          19.1 GVEJ013203
         K19J00E KC2019 05 01.95390 10 12 08.94 +01 36 26.9          18.7 VqEJ013I93
         K19J00E KC2019 05 01.95927 10 12 14.89 +01 36 45.1          18.8 VqEJ013I93
         K19J00E KC2019 05 01.96485 10 12 21.09 +01 37 03.9          19.0 VqEJ013I93
         K19J00E KC2019 05 02.07271310 14 53.20 +01 44 00.7          19.4 VuEJ013H21
         K19J00E KC2019 05 02.07501110 14 55.77 +01 44 09.1          19.4 VuEJ013H21
         K19J00E KC2019 05 02.07752910 14 58.54 +01 44 18.1          19.4 VuEJ013H21
         K19J00E  C2019 05 02.15722 10 16 39.28 +01 50 02.9          18.9 GVEJ013I52
         K19J00E  C2019 05 02.15740 10 16 39.46 +01 50 03.4          18.6 GVEJ013I52
         K19J00E  C2019 05 02.15759 10 16 39.69 +01 50 03.9          19.2 GVEJ013I52
         K19J00E  C2019 05 02.15778 10 16 39.89 +01 50 04.4          19.2 GVEJ013I52
         K19J00E KC2019 05 02.20994 10 17 42.65 +01 52 18.7          18.8 GVEJ013V01
         K19J00E KC2019 05 02.21598 10 17 49.99 +01 52 40.3          19.5 GVEJ013V01
         K19J00E KC2019 05 02.22142 10 17 56.57 +01 53 00.4          19.3 GVEJ013V01
         K19J00E KC2019 05 02.22504 10 18 00.97 +01 53 15.5          19.2 GVEJ013V01
         K19J00E KC2019 05 02.83327110 34 26.99 +02 37 38.4          18.8 GVEJ013C95
         K19J00E KC2019 05 02.83766210 34 34.31 +02 38 00.2          19.0 GVEJ013C95
         K19J00E KC2019 05 02.84205610 34 41.76 +02 38 22.1          17.9 GVEJ013C95
    
    Observer details:
    033 Karl Schwarzschild Observatory, Tautenburg.  Observers C. Hoegner,
        B. Stecklum.  Measurer B. Stecklum.  1.34-m f/3 Schmidt + CCD.
    104 San Marcello Pistoiese.  Observers P. Bacci, M. Maestripieri.  Measurers
        P. Bacci, L. Tesi, G. Fagioli.  0.60-m reflector + CCD.
    203 GiaGa Observatory.  Observers S. Foglia, G. Galli.  Measurer G. Galli.
        0.36-m f/5.76 Schmidt-Cassegrain + CCD.
    204 Schiaparelli Observatory.  Observer L. Buzzi.  0.84-m f/3.5 reflector +
        CCD.
    C95 SATINO Remote Observatory, Haute Provence.  Observer J. Jahn.  0.60-m
        f/3.2 Newtonian reflector + CCD.
    G96 Mt. Lemmon Survey.  Observer T. A. Pruyne.  Measurers B. M. Africano,
        E. J. Christensen, G. A. Farneth, D. C. Fuls, A. R. Gibbs, A. D. Grauer,
        H. Groeller, R. A. Kowalski, S. M. Larson, G. J. Leonard, T. A. Pruyne,
        D. Rankin, R. L. Seaman, F. C. Shelly.  1.5-m reflector + 10K CCD.
    H01 Magdalena Ridge Observatory, Socorro.  Observers W. H. Ryan, E. V. Ryan.
        Measurer W. H. Ryan.  2.4-m f/8.9 Ritchey-Chretien + CCD.
    H21 Astronomical Research Observatory, Westfield.  Observer R. Holmes.
        Measurers S. Foglia, L. Buzzi, T. Linder, R. Holmes.  0.76-m f/3.0
        astrograph + CCD.
    I52 Steward Observatory, Mt. Lemmon Station.  Observers B. M. Africano,
        G. J. Leonard.  Measurers B. M. Africano, E. J. Christensen,
        G. A. Farneth, D. C. Fuls, A. R. Gibbs, A. D. Grauer, H. Groeller,
        R. A. Kowalski, S. M. Larson, G. J. Leonard, T. A. Pruyne, D. Rankin,
        R. L. Seaman, F. C. Shelly.  1.0-m reflector + CCD.
    I93 St Pardon de Conques.  Observer F. Losse.  0.40-m f/3.7 reflector + CCD.
    K87 Dettelbach Vineyard Observatory.  Observer B. Haeusler.  0.30-m
        Schmidt-Cassegrain + CCD.
    L01 Visnjan Observatory, Tican.  Observers K. Korlevic, G. Kervina.  Measurer
        K. Korlevic.  1.0-m f/2.9 reflector + CCD.
    V01 Mountainville Observatory, Alpine.  Observer B. Sheets.  0.35-m
        Schmidt-Cassegrain + CCD.
    
    Orbital elements:
    2019 JE                                                  Earth MOID = 0.0060 AU
    Epoch 2019 Apr. 27.0 TT = JDT 2458600.5                 MPC
    M 357.64268              (2000.0)            P               Q
    n   0.32764973     Peri.    0.44701     -0.73386242     +0.67784037
    a   2.0838327      Node   222.34278     -0.62344860     -0.69808146
    e   0.5133216      Incl.    3.78630     -0.26973652     -0.23068312
    P   3.01           H   26.0           G   0.15           U   5
    Residuals in seconds of arc
    190501 G96  0.1+  0.1-    190501 104  0.1-  0.1-    190501 203  0.1-  0.1+
    190501 G96  0.1+  0.0     190501 033  0.3+  0.1-    190501 I93  0.6+  0.6-
    190501 G96  0.2+  0.1+    190501 033  0.3+  0.3-    190501 I93  0.5+  0.3-
    190501 G96  0.3-  0.1-    190501 104  0.2-  0.2+    190501 I93  0.0   0.2-
    190501 H01  0.0   0.1+    190501 L01  0.3+  0.3+    190502 H21  0.3-  0.8+
    190501 H01  0.2+  0.1+    190501 104  0.3-  0.2+    190502 H21  0.1+  0.9+
    190501 H01  0.1-  0.1-    190501 L01  0.2-  0.3+    190502 H21  0.3-  0.9+
    190501 H01  0.1+  0.1+    190501 L01  0.4-  0.2-    190502 I52  0.2+  0.7+
    190501 I52  0.0   0.1-    190501 204  0.2+  0.2-    190502 I52  0.2-  0.5+
    190501 I52  0.6-  0.0     190501 204  0.2+  0.2+    190502 I52  0.0   0.3+
    190501 I52  0.0   0.2-    190501 204  0.1-  0.2-    190502 I52  0.3-  0.1+
    190501 I52  0.4-  0.1-    190501 033  0.5-  0.1+    190502 V01  0.2-  1.3+
    190501 033  0.5+  0.1-    190501 033  0.1+  0.1-    190502 V01  0.1+  0.2+
    190501 033  0.1-  0.2-    190501 033  0.3-  0.1-    190502 V01  0.6-  0.2-
    190501 K87  0.0   0.3-    190501 033  0.9-  0.0     190502 V01  1.0-  1.2+
    190501 033  0.0   0.1-    190501 033  0.4-  0.2-    190502 C95  0.4+  0.1-
    190501 033  0.1+  0.1-    190501 033  0.3-  0.1+    190502 C95  0.5-  0.6-
    190501 K87  0.0   0.3-    190501 203  0.1-  0.1+    190502 C95  0.2+  1.1-
    190501 K87  0.1-  0.3-    190501 203  0.5+  0.2+
    
    Ephemeris:
    2019 JE                  a,e,i = 2.08, 0.51, 4                   q = 1.0142
    Date    TT    R. A. (2000) Decl.     Delta      r     Elong.  Phase     V
    2019 04 03    09 08 52.2 -02 28 26   0.1324  1.0821   125.6    48.7    23.6
    ...
    2019 04 18    09 08 54.5 -01 38 08   0.07330 1.0332   111.7    64.5    22.7
    ...
    2019 04 26    09 22 35.8 -00 46 12   0.04100 1.0191   107.4    70.4    21.6
    ...
    2019 05 02    10 13 22.8 +01 44 57   0.01699 1.0145   113.3    65.8    19.5
    2019 05 03    10 39 54.9 +02 59 35   0.01324 1.0143   118.2    61.1    18.8
    2019 05 04    11 26 23.9 +05 02 34   0.0098041.0141   127.3    52.3    17.9
    ...
    2019 05 10    19 29 18.5 +05 33 33   0.01857 1.0164   111.0    68.1    19.8
    ...
    2019 05 18    20 19 21.9 +03 12 39   0.05078 1.0274   107.1    70.2    22.0
    ...
    2019 06 02    20 29 39.3 +01 53 18   0.1104  1.0713   118.5    56.3    23.4
    
    A. U. Tomatic                (C) Copyright 2019 MPC           M.P.E.C. 2019-J13
    

    Read MPEC 2019-J12 Read MPEC 2019-J14


    MPEC number:

    Enter an MPEC number in one of the following forms:

    • 1997-B01 (the full form)
    • J97B01 (the packed version of the full form)
    • B01 (the abbreviated form)